Starlink 31450

operational
NORAD ID: 59006 Int'l Des: 2024-036 Owner: SPXS Country: US Constellation: starlink
LEOCIRCULAR

Über Starlink 31450

Beschreibung wird geladen...

Live-Position

3D-Globus wird geladen...

Nächste Überflüge

Höhenverlauf

Altitude vs Time

uPlot chart will show altitude changes over time

Zweizeiliger Elementsatz

1 59006U 24036J 26035.82636155 .00001593 00000-0 65901-4 0 9990
2 59006 53.1584 230.6367 0001229 89.0360 271.0781 15.30193315110295
Epoch: 4. Feb. 2026 • Age: 16 hours

Aktueller Status

Höhe 476.5 km
Geschwindigkeit 7.63 km/s
Subsatellitenpunkt -2.52°S, 82.33°W
Startdatum 23. Feb. 2024
Alter 1.9 years
Typ internet

Technische Details

Klassifizierung Payload
Masse 730.00 kg
Trockenmasse 700.00 kg
Gesamtmasse 730.00 kg
Länge 0.30 m
Durchmesser 4.10 m
Spannweite 29.00 m
Form Box + pan
Hersteller SPXS
Bus-Typ Starlink V2M
Phasenstatus In Orbit
Besitzer/Staat SPXS/US

Große Konstellationen

Loading constellations...